Year,Month,Day,Hour,Minute,Value (Times are PST for temperature in C)
2013,05,01,00,00,7.80
2013,05,01,00,01,7.80
2013,05,01,00,02,7.80
2013,05,01,00,03,7.80
2013,05,01,00,04,7.80
2013,05,01,00,05,7.80
2013,05,01,00,06,7.80
2013,05,01,00,07,7.80
2013,05,01,00,08,7.80
2013,05,01,00,09,7.70
2013,05,01,00,10,7.70
2013,05,01,00,11,7.70
2013,05,01,00,12,7.70
2013,05,01,00,13,7.60
2013,05,01,00,14,7.60
2013,05,01,00,15,7.60
2013,05,01,00,16,7.60
2013,05,01,00,17,7.60
2013,05,01,00,18,7.60
2013,05,01,00,19,7.60
2013,05,01,00,20,7.60
2013,05,01,00,21,7.60
2013,05,01,00,22,7.50
2013,05,01,00,23,7.50
2013,05,01,00,24,7.50
2013,05,01,00,25,7.50
2013,05,01,00,26,7.50
2013,05,01,00,27,7.40
2013,05,01,00,28,7.40
2013,05,01,00,29,7.40
2013,05,01,00,30,7.40
2013,05,01,00,31,7.30
2013,05,01,00,32,7.30
2013,05,01,00,33,7.30
2013,05,01,00,34,7.30
2013,05,01,00,35,7.30
2013,05,01,00,36,7.30
2013,05,01,00,37,7.30
2013,05,01,00,38,7.30
2013,05,01,00,39,7.30
2013,05,01,00,40,7.30
2013,05,01,00,41,7.20
2013,05,01,00,42,7.20
2013,05,01,00,43,7.20
2013,05,01,00,44,7.20
2013,05,01,00,45,7.10
2013,05,01,00,46,7.10
2013,05,01,00,47,7.10
2013,05,01,00,48,7.10
2013,05,01,00,49,7.10
2013,05,01,00,50,7.10
2013,05,01,00,51,7.10
2013,05,01,00,52,7.10
2013,05,01,00,53,7.10
2013,05,01,00,54,7.10
2013,05,01,00,55,7.10
2013,05,01,00,56,7.10
2013,05,01,00,57,7.10
2013,05,01,00,58,7.10
2013,05,01,00,59,7.00
2013,05,01,01,00,7.00
2013,05,01,01,01,7.00
2013,05,01,01,02,7.00
2013,05,01,01,03,7.00
2013,05,01,01,04,6.90
2013,05,01,01,05,6.90
2013,05,01,01,06,6.90
2013,05,01,01,07,6.90
2013,05,01,01,08,6.90
2013,05,01,01,09,6.90
2013,05,01,01,10,6.90
2013,05,01,01,11,6.90
2013,05,01,01,12,6.90
2013,05,01,01,13,6.90
2013,05,01,01,14,6.90
2013,05,01,01,15,6.90
2013,05,01,01,16,6.80
2013,05,01,01,17,6.80
2013,05,01,01,18,6.80
2013,05,01,01,19,6.80
2013,05,01,01,20,6.80
2013,05,01,01,21,6.80
2013,05,01,01,22,6.80
2013,05,01,01,23,6.80
2013,05,01,01,24,6.80
2013,05,01,01,25,6.80
2013,05,01,01,26,6.80
2013,05,01,01,27,6.80
2013,05,01,01,28,6.80
2013,05,01,01,29,6.80
2013,05,01,01,30,6.80
2013,05,01,01,31,6.80
2013,05,01,01,32,6.80
2013,05,01,01,33,6.80
2013,05,01,01,34,6.80
2013,05,01,01,35,6.80
2013,05,01,01,36,6.80
2013,05,01,01,37,6.80
2013,05,01,01,38,6.80
2013,05,01,01,39,6.80
2013,05,01,01,40,6.80
2013,05,01,01,41,6.80
2013,05,01,01,42,6.80
2013,05,01,01,43,6.80
2013,05,01,01,44,6.80
2013,05,01,01,45,6.80
2013,05,01,01,46,6.80
2013,05,01,01,47,6.80
2013,05,01,01,48,6.80
2013,05,01,01,49,6.80
2013,05,01,01,50,6.80
2013,05,01,01,51,6.70
2013,05,01,01,52,6.70
2013,05,01,01,53,6.70
2013,05,01,01,54,6.70
2013,05,01,01,55,6.70
2013,05,01,01,56,6.70
2013,05,01,01,57,6.70
2013,05,01,01,58,6.70
2013,05,01,01,59,6.70
2013,05,01,02,00,6.70
2013,05,01,02,01,6.70
2013,05,01,02,02,6.70
2013,05,01,02,03,6.70
2013,05,01,02,04,6.70
2013,05,01,02,05,6.70
2013,05,01,02,06,6.70
2013,05,01,02,07,6.70
2013,05,01,02,08,6.70
2013,05,01,02,09,6.60
2013,05,01,02,10,6.60
2013,05,01,02,11,6.60
2013,05,01,02,12,6.60
2013,05,01,02,13,6.60
2013,05,01,02,14,6.60
2013,05,01,02,15,6.60
2013,05,01,02,16,6.60
2013,05,01,02,17,6.60
2013,05,01,02,18,6.60
2013,05,01,02,19,6.60
2013,05,01,02,20,6.60
2013,05,01,02,21,6.60
2013,05,01,02,22,6.60
2013,05,01,02,23,6.60
2013,05,01,02,24,6.60
2013,05,01,02,25,6.60
2013,05,01,02,26,6.60
2013,05,01,02,27,6.60
2013,05,01,02,28,6.60
2013,05,01,02,29,6.60
2013,05,01,02,30,6.60
2013,05,01,02,31,6.60
2013,05,01,02,32,6.60
2013,05,01,02,33,6.60
2013,05,01,02,34,6.60
2013,05,01,02,35,6.60
2013,05,01,02,36,6.60
2013,05,01,02,37,6.60
2013,05,01,02,38,6.60
2013,05,01,02,39,6.60
2013,05,01,02,40,6.60
2013,05,01,02,41,6.60
2013,05,01,02,42,6.60
2013,05,01,02,43,6.60
2013,05,01,02,44,6.60
2013,05,01,02,45,6.60
2013,05,01,02,46,6.60
2013,05,01,02,47,6.60
2013,05,01,02,48,6.60
2013,05,01,02,49,6.60
2013,05,01,02,50,6.60
2013,05,01,02,51,6.50
2013,05,01,02,52,6.40
2013,05,01,02,53,6.40
2013,05,01,02,54,6.40
2013,05,01,02,55,6.40
2013,05,01,02,56,6.40
2013,05,01,02,57,6.40
2013,05,01,02,58,6.40
2013,05,01,02,59,6.40
2013,05,01,03,00,6.40
2013,05,01,03,01,6.40
2013,05,01,03,02,6.40
2013,05,01,03,03,6.30
2013,05,01,03,04,6.30
2013,05,01,03,05,6.30
2013,05,01,03,06,6.30
2013,05,01,03,07,6.40
2013,05,01,03,08,6.40
2013,05,01,03,09,6.40
2013,05,01,03,10,6.40
2013,05,01,03,11,6.40
2013,05,01,03,12,6.40
2013,05,01,03,13,6.40
2013,05,01,03,14,6.40
2013,05,01,03,15,6.40
2013,05,01,03,16,6.40
2013,05,01,03,17,6.40
2013,05,01,03,18,6.40
2013,05,01,03,19,6.40
2013,05,01,03,20,6.40
2013,05,01,03,21,6.40
2013,05,01,03,22,6.40
2013,05,01,03,23,6.40
2013,05,01,03,24,6.40
2013,05,01,03,25,6.40
2013,05,01,03,26,6.60
2013,05,01,03,27,6.60
2013,05,01,03,28,6.60
2013,05,01,03,29,6.60
2013,05,01,03,30,6.60
2013,05,01,03,31,6.60
2013,05,01,03,32,6.60
2013,05,01,03,33,6.60
2013,05,01,03,34,6.60
2013,05,01,03,35,6.60
2013,05,01,03,36,6.60
2013,05,01,03,37,6.60
2013,05,01,03,38,6.60
2013,05,01,03,39,6.60
2013,05,01,03,40,6.50
2013,05,01,03,41,6.40
2013,05,01,03,42,6.30
2013,05,01,03,43,6.20
2013,05,01,03,44,6.20
2013,05,01,03,45,6.10
2013,05,01,03,46,6.00
2013,05,01,03,47,5.90
2013,05,01,03,48,5.80
2013,05,01,03,49,5.70
2013,05,01,03,50,5.70
2013,05,01,03,51,5.60
2013,05,01,03,52,5.50
2013,05,01,03,53,5.40
2013,05,01,03,54,5.30
2013,05,01,03,55,5.30
2013,05,01,03,56,5.20
2013,05,01,03,57,5.10
2013,05,01,03,58,5.10
2013,05,01,03,59,5.10
2013,05,01,04,00,4.90
2013,05,01,04,01,4.90
2013,05,01,04,02,4.90
2013,05,01,04,03,4.80
2013,05,01,04,04,4.70
2013,05,01,04,05,4.70
2013,05,01,04,06,4.60
2013,05,01,04,07,4.60
2013,05,01,04,08,4.60
2013,05,01,04,09,4.50
2013,05,01,04,10,4.50
2013,05,01,04,11,4.50
2013,05,01,04,12,4.40
2013,05,01,04,13,4.40
2013,05,01,04,14,4.40
2013,05,01,04,15,4.40
2013,05,01,04,16,4.40
2013,05,01,04,17,4.30
2013,05,01,04,18,4.30
2013,05,01,04,19,4.30
2013,05,01,04,20,4.20
2013,05,01,04,21,4.20
2013,05,01,04,22,4.20
2013,05,01,04,23,4.20
2013,05,01,04,24,4.10
2013,05,01,04,25,4.10
2013,05,01,04,26,4.00
2013,05,01,04,27,4.00
2013,05,01,04,28,4.00
2013,05,01,04,29,3.90
2013,05,01,04,30,3.90
2013,05,01,04,31,3.90
2013,05,01,04,32,3.80
2013,05,01,04,33,3.80
2013,05,01,04,34,3.80
2013,05,01,04,35,3.80
2013,05,01,04,36,3.70
2013,05,01,04,37,3.70
2013,05,01,04,38,3.70
2013,05,01,04,39,3.60
2013,05,01,04,40,3.60
2013,05,01,04,41,3.50
2013,05,01,04,42,3.50
2013,05,01,04,43,3.50
2013,05,01,04,44,3.40
2013,05,01,04,45,3.40
2013,05,01,04,46,3.40
2013,05,01,04,47,3.40
2013,05,01,04,48,3.40
2013,05,01,04,49,3.30
2013,05,01,04,50,3.30
2013,05,01,04,51,3.30
2013,05,01,04,52,3.30
2013,05,01,04,53,3.30
2013,05,01,04,54,3.30
2013,05,01,04,55,3.30
2013,05,01,04,56,3.30
2013,05,01,04,57,3.20
2013,05,01,04,58,3.20
2013,05,01,04,59,3.20
2013,05,01,05,00,3.20
2013,05,01,05,01,3.10
2013,05,01,05,02,3.10
2013,05,01,05,03,3.10
2013,05,01,05,04,3.10
2013,05,01,05,05,3.10
2013,05,01,05,06,3.10
2013,05,01,05,07,3.10
2013,05,01,05,08,3.10
2013,05,01,05,09,3.10
2013,05,01,05,10,3.10
2013,05,01,05,11,3.10
2013,05,01,05,12,3.10
2013,05,01,05,13,3.10
2013,05,01,05,14,3.20
2013,05,01,05,15,3.20
2013,05,01,05,16,3.20
2013,05,01,05,17,3.20
2013,05,01,05,18,3.10
2013,05,01,05,19,3.10
2013,05,01,05,20,3.10
2013,05,01,05,21,3.10
2013,05,01,05,22,3.10
2013,05,01,05,23,3.10
2013,05,01,05,24,3.10
2013,05,01,05,25,3.10
2013,05,01,05,26,2.90
2013,05,01,05,27,2.90
2013,05,01,05,28,2.90
2013,05,01,05,29,2.90
2013,05,01,05,30,2.90
2013,05,01,05,31,2.80
2013,05,01,05,32,2.80
2013,05,01,05,33,2.80
2013,05,01,05,34,2.70
2013,05,01,05,35,2.70
2013,05,01,05,36,2.70
2013,05,01,05,37,2.70
2013,05,01,05,38,2.70
2013,05,01,05,39,2.70
2013,05,01,05,40,2.70
2013,05,01,05,41,2.70
2013,05,01,05,42,2.70
2013,05,01,05,43,2.70
2013,05,01,05,44,2.70
2013,05,01,05,45,2.70
2013,05,01,05,46,2.70
2013,05,01,05,47,2.70
2013,05,01,05,48,2.70
2013,05,01,05,49,2.70
2013,05,01,05,50,2.70
2013,05,01,05,51,2.70
2013,05,01,05,52,2.80
2013,05,01,05,53,2.80
2013,05,01,05,54,2.80
2013,05,01,05,55,2.80
2013,05,01,05,56,2.70
2013,05,01,05,57,2.70
2013,05,01,05,58,2.70
2013,05,01,05,59,2.70
2013,05,01,06,00,2.70
2013,05,01,06,01,2.60
2013,05,01,06,02,2.60
2013,05,01,06,03,2.60
2013,05,01,06,04,2.60
2013,05,01,06,05,2.60
2013,05,01,06,06,2.60
2013,05,01,06,07,2.70
2013,05,01,06,08,2.70
2013,05,01,06,09,2.70
2013,05,01,06,10,2.70
2013,05,01,06,11,2.70
2013,05,01,06,12,2.70
2013,05,01,06,13,2.70
2013,05,01,06,14,2.70
2013,05,01,06,15,2.70
2013,05,01,06,16,2.70
2013,05,01,06,17,2.70
2013,05,01,06,18,2.70
2013,05,01,06,19,2.70
2013,05,01,06,20,2.70
2013,05,01,06,21,2.80
2013,05,01,06,22,2.80
2013,05,01,06,23,2.90
2013,05,01,06,24,2.90
2013,05,01,06,25,2.90
2013,05,01,06,26,2.90
2013,05,01,06,27,2.90
2013,05,01,06,28,2.90
2013,05,01,06,29,2.90
2013,05,01,06,30,2.90
2013,05,01,06,31,2.90
2013,05,01,06,32,3.00
2013,05,01,06,33,3.10
2013,05,01,06,34,3.10
2013,05,01,06,35,3.10
2013,05,01,06,36,3.10
2013,05,01,06,37,3.10
2013,05,01,06,38,3.20
2013,05,01,06,39,3.20
2013,05,01,06,40,3.30
2013,05,01,06,41,3.30
2013,05,01,06,42,3.30
2013,05,01,06,43,3.30
2013,05,01,06,44,3.40
2013,05,01,06,45,3.40
2013,05,01,06,46,3.50
2013,05,01,06,47,3.60
2013,05,01,06,48,3.60
2013,05,01,06,49,3.70
2013,05,01,06,50,3.70
2013,05,01,06,51,3.80
2013,05,01,06,52,3.80
2013,05,01,06,53,3.90
2013,05,01,06,54,4.00
2013,05,01,06,55,4.00
2013,05,01,06,56,4.10
2013,05,01,06,57,4.20
2013,05,01,06,58,4.20
2013,05,01,06,59,4.30
2013,05,01,07,00,4.40
2013,05,01,07,01,4.50
2013,05,01,07,02,4.50
2013,05,01,07,03,4.60
2013,05,01,07,04,4.60
2013,05,01,07,05,4.60
2013,05,01,07,06,4.70
2013,05,01,07,07,4.70
2013,05,01,07,08,4.80
2013,05,01,07,09,4.80
2013,05,01,07,10,4.90
2013,05,01,07,11,4.90
2013,05,01,07,12,5.00
2013,05,01,07,13,5.10
2013,05,01,07,14,5.10
2013,05,01,07,15,5.10
2013,05,01,07,16,5.20
2013,05,01,07,17,5.20
2013,05,01,07,18,5.20
2013,05,01,07,19,5.30
2013,05,01,07,20,5.30
2013,05,01,07,21,5.40
2013,05,01,07,22,5.40
2013,05,01,07,23,5.50
2013,05,01,07,24,5.50
2013,05,01,07,25,5.60
2013,05,01,07,26,5.60
2013,05,01,07,27,5.70
2013,05,01,07,28,5.70
2013,05,01,07,29,5.70
2013,05,01,07,30,5.70
2013,05,01,07,31,5.70
2013,05,01,07,32,5.80
2013,05,01,07,33,5.80
2013,05,01,07,34,5.80
2013,05,01,07,35,5.90
2013,05,01,07,36,5.90
2013,05,01,07,37,6.00
2013,05,01,07,38,6.00
2013,05,01,07,39,6.00
2013,05,01,07,40,6.10
2013,05,01,07,41,6.10
2013,05,01,07,42,6.20
2013,05,01,07,43,6.20
2013,05,01,07,44,6.20
2013,05,01,07,45,6.20
2013,05,01,07,46,6.20
2013,05,01,07,47,6.30
2013,05,01,07,48,6.30
2013,05,01,07,49,6.30
2013,05,01,07,50,6.30
2013,05,01,07,51,6.40
2013,05,01,07,52,6.40
2013,05,01,07,53,6.40
2013,05,01,07,54,6.40
2013,05,01,07,55,6.50
2013,05,01,07,56,6.60
2013,05,01,07,57,6.60
2013,05,01,07,58,6.60
2013,05,01,07,59,6.60
2013,05,01,08,00,6.70
2013,05,01,08,01,6.80
2013,05,01,08,02,6.80
2013,05,01,08,03,6.80
2013,05,01,08,04,6.90
2013,05,01,08,05,7.00
2013,05,01,08,06,7.00
2013,05,01,08,07,7.10
2013,05,01,08,08,7.20
2013,05,01,08,09,7.30
2013,05,01,08,10,7.40
2013,05,01,08,11,7.50
2013,05,01,08,12,7.60
2013,05,01,08,13,7.70
2013,05,01,08,14,7.70
2013,05,01,08,15,7.80
2013,05,01,08,16,7.80
2013,05,01,08,17,7.80
2013,05,01,08,18,7.90
2013,05,01,08,19,7.90
2013,05,01,08,20,8.00
2013,05,01,08,21,8.00
2013,05,01,08,22,8.10
2013,05,01,08,23,8.20
2013,05,01,08,24,8.10
2013,05,01,08,25,8.10
2013,05,01,08,26,8.00
2013,05,01,08,27,8.00
2013,05,01,08,28,7.90
2013,05,01,08,29,8.00
2013,05,01,08,30,7.90
2013,05,01,08,31,7.90
2013,05,01,08,32,7.90
2013,05,01,08,33,7.90
2013,05,01,08,34,7.90
2013,05,01,08,35,7.90
2013,05,01,08,36,7.90
2013,05,01,08,37,7.90
2013,05,01,08,38,7.90
2013,05,01,08,39,7.90
2013,05,01,08,40,7.90
2013,05,01,08,41,7.80
2013,05,01,08,42,7.80
2013,05,01,08,43,7.80
2013,05,01,08,44,7.80
2013,05,01,08,45,7.80
2013,05,01,08,46,7.70
2013,05,01,08,47,7.70
2013,05,01,08,48,7.60
2013,05,01,08,49,7.60
2013,05,01,08,50,7.60
2013,05,01,08,51,7.70
2013,05,01,08,52,7.70
2013,05,01,08,53,7.70
2013,05,01,08,54,7.70
2013,05,01,08,55,7.70
2013,05,01,08,56,7.70
2013,05,01,08,57,7.80
2013,05,01,08,58,7.80
2013,05,01,08,59,7.90
2013,05,01,09,00,7.90
2013,05,01,09,01,7.90
2013,05,01,09,02,8.00
2013,05,01,09,03,8.10
2013,05,01,09,04,8.10
2013,05,01,09,05,8.20
2013,05,01,09,06,8.20
2013,05,01,09,07,8.20
2013,05,01,09,08,8.20
2013,05,01,09,09,8.20
2013,05,01,09,10,8.20
2013,05,01,09,11,8.20
2013,05,01,09,12,8.20
2013,05,01,09,13,8.30
2013,05,01,09,14,8.40
2013,05,01,09,15,8.40
2013,05,01,09,16,8.40
2013,05,01,09,17,8.30
2013,05,01,09,18,8.20
2013,05,01,09,19,8.20
2013,05,01,09,20,8.20
2013,05,01,09,21,8.20
2013,05,01,09,22,8.20
2013,05,01,09,23,8.20
2013,05,01,09,24,8.20
2013,05,01,09,25,8.10
2013,05,01,09,26,8.10
2013,05,01,09,27,8.20
2013,05,01,09,28,8.30
2013,05,01,09,29,8.30
2013,05,01,09,30,8.30
2013,05,01,09,31,8.30
2013,05,01,09,32,8.30
2013,05,01,09,33,8.30
2013,05,01,09,34,8.30
2013,05,01,09,35,8.30
2013,05,01,09,36,8.30
2013,05,01,09,37,8.20
2013,05,01,09,38,8.20
2013,05,01,09,39,8.20
2013,05,01,09,40,8.20
2013,05,01,09,41,8.30
2013,05,01,09,42,8.30
2013,05,01,09,43,8.40
2013,05,01,09,44,8.50
2013,05,01,09,45,8.50
2013,05,01,09,46,8.50
2013,05,01,09,47,8.50
2013,05,01,09,48,8.40
2013,05,01,09,49,8.30
2013,05,01,09,50,8.30
2013,05,01,09,51,8.20
2013,05,01,09,52,8.20
2013,05,01,09,53,8.20
2013,05,01,09,54,8.20
2013,05,01,09,55,8.20
2013,05,01,09,56,8.20
2013,05,01,09,57,8.20
2013,05,01,09,58,8.30
2013,05,01,09,59,8.40
2013,05,01,10,00,8.40
2013,05,01,10,01,8.40
2013,05,01,10,02,8.30
2013,05,01,10,03,8.20
2013,05,01,10,04,8.20
2013,05,01,10,05,8.30
2013,05,01,10,06,8.40
2013,05,01,10,07,8.50
2013,05,01,10,08,8.50
2013,05,01,10,09,8.60
2013,05,01,10,10,8.60
2013,05,01,10,11,8.70
2013,05,01,10,12,8.70
2013,05,01,10,13,8.70
2013,05,01,10,14,8.70
2013,05,01,10,15,8.70
2013,05,01,10,16,8.90
2013,05,01,10,17,8.90
2013,05,01,10,18,8.80
2013,05,01,10,19,8.70
2013,05,01,10,20,8.70
2013,05,01,10,21,8.70
2013,05,01,10,22,8.70
2013,05,01,10,23,8.80
2013,05,01,10,24,8.90
2013,05,01,10,25,9.00
2013,05,01,10,26,9.20
2013,05,01,10,27,9.10
2013,05,01,10,28,9.10
2013,05,01,10,29,9.10
2013,05,01,10,30,9.20
2013,05,01,10,31,9.20
2013,05,01,10,32,9.30
2013,05,01,10,33,9.20
2013,05,01,10,34,9.20
2013,05,01,10,35,9.40
2013,05,01,10,36,9.40
2013,05,01,10,37,9.50
2013,05,01,10,38,9.70
2013,05,01,10,39,9.80
2013,05,01,10,40,9.90
2013,05,01,10,41,10.00
2013,05,01,10,42,10.10
2013,05,01,10,43,10.20
2013,05,01,10,44,10.30
2013,05,01,10,45,10.40
2013,05,01,10,46,10.60
2013,05,01,10,47,10.60
2013,05,01,10,48,10.60
2013,05,01,10,49,10.60
2013,05,01,10,50,10.60
2013,05,01,10,51,10.60
2013,05,01,10,52,10.60
2013,05,01,10,53,10.70
2013,05,01,10,54,10.80
2013,05,01,10,55,10.90
2013,05,01,10,56,10.80
2013,05,01,10,57,10.70
2013,05,01,10,58,10.70
2013,05,01,10,59,10.60
2013,05,01,11,00,10.60
2013,05,01,11,01,10.60
2013,05,01,11,02,10.60
2013,05,01,11,03,10.40
2013,05,01,11,04,10.40
2013,05,01,11,05,10.30
2013,05,01,11,06,10.40
2013,05,01,11,07,10.60
2013,05,01,11,08,10.80
2013,05,01,11,09,11.00
2013,05,01,11,10,11.10
2013,05,01,11,11,11.00
2013,05,01,11,12,10.90
2013,05,01,11,13,10.90
2013,05,01,11,14,10.90
2013,05,01,11,15,10.90
2013,05,01,11,16,10.90
2013,05,01,11,17,11.10
2013,05,01,11,18,11.10
2013,05,01,11,19,11.10
2013,05,01,11,20,10.90
2013,05,01,11,21,10.90
2013,05,01,11,22,10.80
2013,05,01,11,23,10.90
2013,05,01,11,24,10.90
2013,05,01,11,25,11.00
2013,05,01,11,26,11.00
2013,05,01,11,27,10.90
2013,05,01,11,28,10.90
2013,05,01,11,29,11.00
2013,05,01,11,30,11.10
2013,05,01,11,31,11.10
2013,05,01,11,32,11.10
2013,05,01,11,33,11.10
2013,05,01,11,34,11.20
2013,05,01,11,35,11.20
2013,05,01,11,36,11.00
2013,05,01,11,37,10.90
2013,05,01,11,38,10.90
2013,05,01,11,39,10.90
2013,05,01,11,40,11.00
2013,05,01,11,41,11.10
2013,05,01,11,42,11.10
2013,05,01,11,43,11.10
2013,05,01,11,44,11.10
2013,05,01,11,45,11.20
2013,05,01,11,46,11.20
2013,05,01,11,47,11.30
2013,05,01,11,48,11.40
2013,05,01,11,49,11.40
2013,05,01,11,50,11.40
2013,05,01,11,51,11.40
2013,05,01,11,52,11.20
2013,05,01,11,53,11.00
2013,05,01,11,54,10.90
2013,05,01,11,55,10.80
2013,05,01,11,56,10.80
2013,05,01,11,57,10.70
2013,05,01,11,58,10.80
2013,05,01,11,59,10.90
2013,05,01,12,00,10.90
2013,05,01,12,01,10.90
2013,05,01,12,02,10.90
2013,05,01,12,03,10.90
2013,05,01,12,04,10.80
2013,05,01,12,05,10.60
2013,05,01,12,06,10.40
2013,05,01,12,07,10.40
2013,05,01,12,08,10.40
2013,05,01,12,09,10.40
2013,05,01,12,10,10.40
2013,05,01,12,11,10.40
2013,05,01,12,12,10.50
2013,05,01,12,13,10.60
2013,05,01,12,14,10.70
2013,05,01,12,15,10.60
2013,05,01,12,16,10.60
2013,05,01,12,17,10.60
2013,05,01,12,18,10.60
2013,05,01,12,19,10.60
2013,05,01,12,20,10.50
2013,05,01,12,21,10.40
2013,05,01,12,22,10.40
2013,05,01,12,23,10.40
2013,05,01,12,24,10.50
2013,05,01,12,25,10.60
2013,05,01,12,26,10.60
2013,05,01,12,27,10.70
2013,05,01,12,28,10.60
2013,05,01,12,29,10.70
2013,05,01,12,30,10.80
2013,05,01,12,31,10.90
2013,05,01,12,32,10.90
2013,05,01,12,33,10.90
2013,05,01,12,34,10.90
2013,05,01,12,35,10.90
2013,05,01,12,36,11.00
2013,05,01,12,37,11.10
2013,05,01,12,38,11.10
2013,05,01,12,39,11.10
2013,05,01,12,40,11.10
2013,05,01,12,41,11.10
2013,05,01,12,42,11.30
2013,05,01,12,43,11.40
2013,05,01,12,44,11.40
2013,05,01,12,45,11.40
2013,05,01,12,46,11.30
2013,05,01,12,47,11.20
2013,05,01,12,48,11.20
2013,05,01,12,49,11.20
2013,05,01,12,50,11.30
2013,05,01,12,51,11.40
2013,05,01,12,52,11.60
2013,05,01,12,53,11.60
2013,05,01,12,54,11.60
2013,05,01,12,55,11.70
2013,05,01,12,56,11.70
2013,05,01,12,57,11.70
2013,05,01,12,58,11.70
2013,05,01,12,59,11.60
2013,05,01,13,00,11.50
2013,05,01,13,01,11.50
2013,05,01,13,02,11.50
2013,05,01,13,03,11.40
2013,05,01,13,04,11.40
2013,05,01,13,05,11.40
2013,05,01,13,06,11.40
2013,05,01,13,07,11.50
2013,05,01,13,08,11.70
2013,05,01,13,09,11.70
2013,05,01,13,10,11.80
2013,05,01,13,11,11.80
2013,05,01,13,12,11.80
2013,05,01,13,13,11.70
2013,05,01,13,14,11.70
2013,05,01,13,15,11.70
2013,05,01,13,16,11.70
2013,05,01,13,17,11.70
2013,05,01,13,18,11.60
2013,05,01,13,19,11.60
2013,05,01,13,20,11.80
2013,05,01,13,21,11.80
2013,05,01,13,22,11.80
2013,05,01,13,23,11.60
2013,05,01,13,24,11.50
2013,05,01,13,25,11.40
2013,05,01,13,26,11.40
2013,05,01,13,27,11.30
2013,05,01,13,28,11.20
2013,05,01,13,29,11.20
2013,05,01,13,30,11.20
2013,05,01,13,31,11.30
2013,05,01,13,32,11.40
2013,05,01,13,33,11.60
2013,05,01,13,34,11.70
2013,05,01,13,35,11.70
2013,05,01,13,36,11.60
2013,05,01,13,37,11.60
2013,05,01,13,38,11.60
2013,05,01,13,39,11.70
2013,05,01,13,40,11.80
2013,05,01,13,41,11.80
2013,05,01,13,42,11.90
2013,05,01,13,43,11.90
2013,05,01,13,44,11.80
2013,05,01,13,45,11.70
2013,05,01,13,46,11.70
2013,05,01,13,47,11.70
2013,05,01,13,48,11.60
2013,05,01,13,49,11.60
2013,05,01,13,50,11.60
2013,05,01,13,51,11.60
2013,05,01,13,52,11.70
2013,05,01,13,53,11.60
2013,05,01,13,54,11.70
2013,05,01,13,55,11.70
2013,05,01,13,56,11.60
2013,05,01,13,57,11.60
2013,05,01,13,58,11.60
2013,05,01,13,59,11.60
2013,05,01,14,00,11.60
2013,05,01,14,01,11.60
2013,05,01,14,02,11.70
2013,05,01,14,03,11.80
2013,05,01,14,04,11.80
2013,05,01,14,05,11.80
2013,05,01,14,06,11.80
2013,05,01,14,07,11.80
2013,05,01,14,08,11.70
2013,05,01,14,09,11.80
2013,05,01,14,10,11.80
2013,05,01,14,11,11.80
2013,05,01,14,12,11.90
2013,05,01,14,13,12.00
2013,05,01,14,14,12.00
2013,05,01,14,15,12.10
2013,05,01,14,16,12.20
2013,05,01,14,17,12.10
2013,05,01,14,18,12.10
2013,05,01,14,19,12.00
2013,05,01,14,20,12.10
2013,05,01,14,21,12.10
2013,05,01,14,22,12.20
2013,05,01,14,23,12.30
2013,05,01,14,24,12.30
2013,05,01,14,25,12.30
2013,05,01,14,26,12.40
2013,05,01,14,27,12.50
2013,05,01,14,28,12.40
2013,05,01,14,29,12.40
2013,05,01,14,30,12.50
2013,05,01,14,31,12.50
2013,05,01,14,32,12.50
2013,05,01,14,33,12.40
2013,05,01,14,34,12.30
2013,05,01,14,35,12.30
2013,05,01,14,36,12.30
2013,05,01,14,37,12.30
2013,05,01,14,38,12.50
2013,05,01,14,39,12.60
2013,05,01,14,40,12.80
2013,05,01,14,41,12.80
2013,05,01,14,42,12.80
2013,05,01,14,43,12.80
2013,05,01,14,44,12.80
2013,05,01,14,45,12.90
2013,05,01,14,46,12.90
2013,05,01,14,47,13.00
2013,05,01,14,48,13.10
2013,05,01,14,49,13.30
2013,05,01,14,50,13.40
2013,05,01,14,51,13.60
2013,05,01,14,52,13.60
2013,05,01,14,53,13.40
2013,05,01,14,54,13.30
2013,05,01,14,55,13.30
2013,05,01,14,56,13.50
2013,05,01,14,57,13.60
2013,05,01,14,58,13.60
2013,05,01,14,59,13.60
2013,05,01,15,00,13.60
2013,05,01,15,01,13.70
2013,05,01,15,02,13.70
2013,05,01,15,03,13.70
2013,05,01,15,04,13.70
2013,05,01,15,05,13.60
2013,05,01,15,06,13.50
2013,05,01,15,07,13.50
2013,05,01,15,08,13.50
2013,05,01,15,09,13.50
2013,05,01,15,10,13.50
2013,05,01,15,11,13.60
2013,05,01,15,12,13.70
2013,05,01,15,13,13.80
2013,05,01,15,14,14.00
2013,05,01,15,15,14.10
2013,05,01,15,16,14.00
2013,05,01,15,17,14.00
2013,05,01,15,18,14.00
2013,05,01,15,19,13.90
2013,05,01,15,20,13.90
2013,05,01,15,21,14.00
2013,05,01,15,22,13.80
2013,05,01,15,23,13.80
2013,05,01,15,24,13.80
2013,05,01,15,25,13.90
2013,05,01,15,26,14.10
2013,05,01,15,27,14.30
2013,05,01,15,28,14.50
2013,05,01,15,29,14.20
2013,05,01,15,30,14.10
2013,05,01,15,31,14.10
2013,05,01,15,32,14.00
2013,05,01,15,33,13.80
2013,05,01,15,34,13.70
2013,05,01,15,35,13.60
2013,05,01,15,36,13.60
2013,05,01,15,37,13.60
2013,05,01,15,38,13.50
2013,05,01,15,39,13.50
2013,05,01,15,40,13.50
2013,05,01,15,41,13.60
2013,05,01,15,42,13.70
2013,05,01,15,43,13.70
2013,05,01,15,44,13.80
2013,05,01,15,45,13.90
2013,05,01,15,46,14.00
2013,05,01,15,47,14.00
2013,05,01,15,48,13.90
2013,05,01,15,49,14.00
2013,05,01,15,50,14.00
2013,05,01,15,51,14.00
2013,05,01,15,52,14.00
2013,05,01,15,53,13.90
2013,05,01,15,54,14.00
2013,05,01,15,55,14.00
2013,05,01,15,56,14.10
2013,05,01,15,57,14.20
2013,05,01,15,58,14.10
2013,05,01,15,59,14.00
2013,05,01,16,00,14.00
2013,05,01,16,01,14.00
2013,05,01,16,02,14.20
2013,05,01,16,03,14.10
2013,05,01,16,04,13.90
2013,05,01,16,05,13.80
2013,05,01,16,06,13.80
2013,05,01,16,07,13.80
2013,05,01,16,08,13.90
2013,05,01,16,09,14.00
2013,05,01,16,10,14.00
2013,05,01,16,11,14.00
2013,05,01,16,12,14.20
2013,05,01,16,13,14.20
2013,05,01,16,14,14.30
2013,05,01,16,15,14.30
2013,05,01,16,16,14.20
2013,05,01,16,17,14.20
2013,05,01,16,18,14.20
2013,05,01,16,19,14.20
2013,05,01,16,20,14.30
2013,05,01,16,21,14.50
2013,05,01,16,22,14.50
2013,05,01,16,23,14.50
2013,05,01,16,24,14.30
2013,05,01,16,25,14.20
2013,05,01,16,26,14.20
2013,05,01,16,27,14.20
2013,05,01,16,28,14.10
2013,05,01,16,29,13.90
2013,05,01,16,30,13.80
2013,05,01,16,31,13.70
2013,05,01,16,32,13.50
2013,05,01,16,33,13.30
2013,05,01,16,34,13.00
2013,05,01,16,35,12.70
2013,05,01,16,36,12.50
2013,05,01,16,37,12.30
2013,05,01,16,38,12.30
2013,05,01,16,39,12.20
2013,05,01,16,40,12.00
2013,05,01,16,41,11.90
2013,05,01,16,42,11.80
2013,05,01,16,43,11.80
2013,05,01,16,44,11.80
2013,05,01,16,45,11.70
2013,05,01,16,46,11.70
2013,05,01,16,47,11.60
2013,05,01,16,48,11.40
2013,05,01,16,49,11.40
2013,05,01,16,50,11.40
2013,05,01,16,51,11.40
2013,05,01,16,52,11.40
2013,05,01,16,53,11.50
2013,05,01,16,54,11.60
2013,05,01,16,55,11.50
2013,05,01,16,56,11.40
2013,05,01,16,57,11.40
2013,05,01,16,58,11.40
2013,05,01,16,59,11.40
2013,05,01,17,00,11.30
2013,05,01,17,01,11.30
2013,05,01,17,02,11.20
2013,05,01,17,03,11.20
2013,05,01,17,04,11.30
2013,05,01,17,05,11.30
2013,05,01,17,06,11.30
2013,05,01,17,07,11.40
2013,05,01,17,08,11.50
2013,05,01,17,09,11.60
2013,05,01,17,10,11.60
2013,05,01,17,11,11.60
2013,05,01,17,12,11.60
2013,05,01,17,13,11.60
2013,05,01,17,14,11.40
2013,05,01,17,15,11.40
2013,05,01,17,16,11.30
2013,05,01,17,17,11.30
2013,05,01,17,18,11.20
2013,05,01,17,19,11.10
2013,05,01,17,20,11.10
2013,05,01,17,21,11.00
2013,05,01,17,22,10.80
2013,05,01,17,23,10.70
2013,05,01,17,24,10.70
2013,05,01,17,25,10.60
2013,05,01,17,26,10.60
2013,05,01,17,27,10.50
2013,05,01,17,28,10.40
2013,05,01,17,29,10.60
2013,05,01,17,30,10.60
2013,05,01,17,31,10.70
2013,05,01,17,32,10.70
2013,05,01,17,33,10.80
2013,05,01,17,34,10.90
2013,05,01,17,35,10.90
2013,05,01,17,36,10.90
2013,05,01,17,37,10.90
2013,05,01,17,38,10.90
2013,05,01,17,39,10.80
2013,05,01,17,40,10.90
2013,05,01,17,41,10.90
2013,05,01,17,42,10.90
2013,05,01,17,43,10.80
2013,05,01,17,44,10.70
2013,05,01,17,45,10.70
2013,05,01,17,46,10.60
2013,05,01,17,47,10.60